Meteo Giornale » Osservazioni meteo Italia » Pisa-S Giusto

ore: 03:45 - Osservazioni Meteo Pisa-S Giusto
Lat. 43° 41' N Lon. 10° 23' E Alt. 2 metri s.l.m.

sereno

21 °C

Sereno

Temp. 24 Ore

18 °C

30 °C

Est/Sud-Est

9.3 Km/h

Dew point 20 °C

Umidità 94 %

Visibilità  10 Km

Il sole sorge alle ore 06:42

Il sole tramonta alle ore 19:54

Data e Ora Cielo e Fenomeni T °C DP °C Um. % Pres. hPa Vis. km Vento km/h
Oggi h: 03:45 sereno Sereno 21 20 94 1016 10 E/SE 9.3
Oggi h: 03:15 sereno Sereno 21 20 94 1016 10 E/SE 13
Oggi h: 02:45 sereno Sereno 21 20 94 1016 10 E/SE 11.1
Oggi h: 02:15 sereno Sereno 22 19 83 1016 10 E/SE 7.4
Oggi h: 01:45 sereno Sereno 22 20 88 1016 10 E/SE 7.4
Oggi h: 01:15 sereno Sereno 22 20 88 1016 10 N 3.7
Oggi h: 00:45 sereno Sereno 22 20 88 1016 10 N 3.7
Oggi h: 00:15 sereno Sereno 22 20 88 1016 10 S/SE 7.4
Ieri h: 23:45 sereno Sereno 22 21 94 1016 10 E/SE 7.4
Ieri h: 23:15 sereno Sereno 23 21 88 1016 10 N 1.8
Ieri h: 22:45 sereno Sereno 23 21 88 1016 10 N 3.7
Ieri h: 22:15 nuvoloso Nuvoloso 24 21 83 1015 10 N 1.8
Ieri h: 21:45 nuvoloso Nuvoloso 24 21 83 1015 10 N 1.8
Ieri h: 21:15 molto_nuvoloso Molto Nuvoloso 25 21 78 1015 10 N 3.7
Ieri h: 20:45 molto_nuvoloso Molto Nuvoloso 25 21 78 1015 10 N 5.5
Ieri h: 20:15 nuvoloso Nuvoloso 26 21 73 1015 10 O/SO 11.1
Ieri h: 19:45 nuvoloso Nuvoloso 26 21 73 1015 10 O 11.1
Ieri h: 19:15 nuvoloso Nuvoloso 27 21 69 1016 10 O 18.5
Ieri h: 18:45 nuvoloso Nuvoloso 27 21 69 1016 10 O 18.5
Ieri h: 18:15 nuvoloso Nuvoloso 27 21 69 1016 10 O 16.7
Ieri h: 17:45 nuvoloso Nuvoloso 28 21 65 1016 10 O 20.3
Ieri h: 17:15 poco_nuvoloso Poco Nuvoloso 28 20 61 1016 10 O 22.2
Ieri h: 16:45 sereno Sereno 29 20 58 1016 10 O/SO 18.5
Ieri h: 16:15 poco_nuvoloso Poco Nuvoloso 29 20 58 1016 10 O 18.5
Ieri h: 15:45 poco_nuvoloso Poco Nuvoloso 29 20 58 1016 10 SO 16.7
Ieri h: 15:15 sereno Sereno 29 19 54 1016 10 SO 18.5
Ieri h: 14:45 sereno Sereno 30 20 55 1016 10 O/SO 18.5
Ieri h: 14:15 poco_nuvoloso Poco Nuvoloso 29 20 58 1016 10 O 20.3
Ieri h: 13:45 sereno Sereno 29 21 62 1016 10 O/SO 16.7
Ieri h: 13:15 poco_nuvoloso Poco Nuvoloso 29 20 58 1017 10 O 20.3
Ieri h: 12:45 poco_nuvoloso Poco Nuvoloso 29 19 54 1017 10 SO 18.5
Ieri h: 12:15 poco_nuvoloso Poco Nuvoloso 29 19 54 1017 10 SO 13
Ieri h: 11:45 nuvoloso Nuvoloso 29 19 54 1017 10 SO 13
Ieri h: 11:15 nuvoloso Nuvoloso 27 20 65 1017 10 N 5.5
Ieri h: 10:45 nuvoloso Nuvoloso 27 20 65 1016 10 N 3.7
Ieri h: 10:15 nuvoloso Nuvoloso 26 20 69 1016 10 E/SE 7.4
Ieri h: 09:45 sereno Sereno 25 19 69 1016 10 E/SE 9.3
Ieri h: 09:15 sereno Sereno 23 19 78 1016 10 E/SE 7.4
Ieri h: 08:45 sereno Sereno 21 18 82 1016 10 E 7.4
Ieri h: 08:15 nuvoloso Nuvoloso 20 18 88 1015 10 N 5.5
Ieri h: 07:45 nuvoloso Nuvoloso 19 18 93 1016 10 E/SE 7.4
Ieri h: 07:15 nuvoloso Nuvoloso 19 17 88 1015 10 N 5.5
Ieri h: 06:45 nuvoloso Nuvoloso 19 17 88 1015 10 E/SE 9.3
Ieri h: 06:15 sereno Sereno 19 17 88 1014 10 N 5.5
Ieri h: 05:45 sereno Sereno 18 17 93 1014 10 N 5.5
Ieri h: 05:15 sereno Sereno 18 17 93 1014 10 N 5.5
Ieri h: 04:45 sereno Sereno 18 17 93 1014 10 SE 7.4